Clarksburg, WV

2:53 PM EDT on July 21, 2019 (GMT -0400)
Benedum

Weather History for KCKB - May, 2019

Change the Weather History Date:

Monday, May 27, 2019

  Actual Average Record
Temperature  
Mean Temperature 75 °F -  
Max Temperature 83 °F 76 °F 96 °F (1939)
Min Temperature 66 °F 50 °F 33 °F (1925)
Cooling Degree Days 10    
Month to date cooling degree days 121  
Year to date cooling degree days 146  
Growing Degree Days 24 (Base 50)    
Moisture  
Dew Point 63 °F    
Average Humidity 70    
Maximum Humidity 93    
Minimum Humidity 46    
Precipitation  
Precipitation 0.01 in - - ()
Month to date precipitation 3.39  
Year to date precipitation 17.52  
Sea Level Pressure  
Sea Level Pressure 29.99 in    
Wind  
Wind Speed 4 mph (WNW)    
Max Wind Speed 14 mph    
Max Gust Speed 17 mph    
Visibility 9 miles    
Events Rain    
Averages and records for this station are not official NWS values.
T = Trace of Precipitation, MM = Missing Value Source: NWS Daily Summary

Daily Weather History Graph

Daily Weather History Graph

Search for Another Location

Airport or City:

Astronomy

May. 27, 2019 Rise Set
Actual Time 5:58 AM EDT 8:37 PM EDT
Civil Twilight 5:27 AM EDT 9:09 PM EDT
Nautical Twilight 4:48 AM EDT 9:48 PM EDT
Astronomical Twilight 4:04 AM EDT 10:32 PM EDT
Moon 2:39 AM EDT (5/27) 1:51 PM EDT (5/27)
Length of Visible Light 15h 41m
Length of Day
14h 38m
Last Quarter, 41% of the Moon is Illuminated
May 27
Last Quarter
Jun 3
New
Jun 10
First Quarter
Jun 17
Full
Jun 25
Last Quarter

Hourly Weather History & Observations

Time (EDT) Temp. Heat Index Dew Point Humidity Pressure Visibility Wind Dir Wind Speed Gust Speed Precip Events Conditions
12:14 AM 68.0 °F - 64.0 °F 87% 30.02 in 9.0 mi Calm Calm - N/A   Mostly Cloudy
12:53 AM 66.9 °F - 64.0 °F 90% 29.99 in 5.0 mi Calm Calm - N/A   Clear
1:53 AM 66.9 °F - 63.0 °F 87% 29.98 in 8.0 mi SSW 5.8 mph - N/A   Scattered Clouds
2:18 AM 66.9 °F - 64.0 °F 90% 30.02 in 9.0 mi SSW 3.5 mph - N/A   Overcast
2:53 AM 66.9 °F - 64.0 °F 90% 29.97 in 10.0 mi Calm Calm - N/A   Overcast
3:07 AM 66.9 °F - 64.0 °F 90% 30.01 in 10.0 mi SW 3.5 mph - N/A   Overcast
3:53 AM 68.0 °F - 64.0 °F 87% 29.96 in 10.0 mi Calm Calm - N/A   Overcast
4:53 AM 68.0 °F - 64.0 °F 87% 29.96 in 9.0 mi Calm Calm - N/A   Overcast
5:53 AM 68.0 °F - 64.0 °F 87% 29.99 in 6.0 mi West 3.5 mph - N/A   Overcast
6:20 AM 68.0 °F - 64.0 °F 87% 30.03 in 5.0 mi West 3.5 mph - N/A   Overcast
6:53 AM 68.0 °F - 64.0 °F 87% 30.00 in 6.0 mi West 3.5 mph - N/A   Overcast
7:53 AM 69.1 °F - 64.0 °F 84% 30.02 in 7.0 mi West 3.5 mph - N/A   Mostly Cloudy
8:22 AM 71.1 °F - 64.0 °F 78% 30.06 in 9.0 mi West 4.6 mph - N/A   Overcast
8:53 AM 71.1 °F - 64.0 °F 78% 30.02 in 10.0 mi Calm Calm - N/A   Overcast
9:11 AM 71.1 °F - 64.0 °F 78% 30.06 in 10.0 mi North 6.9 mph - N/A   Overcast
9:22 AM 70.0 °F - 63.0 °F 78% 30.07 in 10.0 mi North 5.8 mph - N/A   Overcast
9:34 AM 71.1 °F - 64.0 °F 78% 30.07 in 10.0 mi North 3.5 mph - N/A   Mostly Cloudy
9:53 AM 70.0 °F - 63.0 °F 78% 30.03 in 10.0 mi North 9.2 mph - N/A   Mostly Cloudy
10:00 AM 70.0 °F - 63.0 °F 78% 30.07 in 10.0 mi NNE 6.9 mph - 0.00 in Rain Light Rain
10:53 AM 73.9 °F - 63.0 °F 68% 30.02 in 10.0 mi Calm Calm - 0.01 in   Mostly Cloudy
11:53 AM 75.0 °F - 62.1 °F 64% 30.01 in 10.0 mi Calm Calm - N/A   Mostly Cloudy
12:00 PM 75.0 °F - 62.1 °F 64% 30.05 in 10.0 mi NNW 6.9 mph - N/A   Overcast
12:27 PM 75.9 °F - 62.1 °F 62% 30.05 in 10.0 mi NW 5.8 mph - N/A   Mostly Cloudy
12:35 PM 75.9 °F - 61.0 °F 60% 30.05 in 10.0 mi Calm Calm - N/A   Mostly Cloudy
12:53 PM 77.0 °F - 62.1 °F 60% 30.00 in 10.0 mi Variable 6.9 mph - N/A   Mostly Cloudy
1:53 PM 78.1 °F - 61.0 °F 56% 29.99 in 10.0 mi WNW 6.9 mph - N/A   Scattered Clouds
2:53 PM 81.0 °F 81.6 °F 60.1 °F 49% 29.95 in 10.0 mi NW 5.8 mph - N/A   Scattered Clouds
3:53 PM 82.0 °F 82.1 °F 59.0 °F 45% 29.94 in 10.0 mi West 10.4 mph - N/A   Clear
4:53 PM 81.0 °F 81.3 °F 59.0 °F 47% 29.93 in 7.0 mi NW 8.1 mph - N/A   Scattered Clouds
5:53 PM 81.0 °F 81.6 °F 60.1 °F 49% 29.92 in 10.0 mi West 9.2 mph - N/A   Partly Cloudy
6:53 PM 79.0 °F - 61.0 °F 54% 29.93 in 10.0 mi West 6.9 mph - N/A   Partly Cloudy
7:53 PM 78.1 °F - 60.1 °F 54% 29.93 in 10.0 mi West 4.6 mph - N/A   Clear
8:53 PM 73.0 °F - 61.0 °F 66% 29.91 in 10.0 mi Calm Calm - N/A   Clear
9:53 PM 70.0 °F - 61.0 °F 73% 29.89 in 10.0 mi SSE 3.5 mph - N/A   Clear
10:53 PM 68.0 °F - 62.1 °F 81% 29.89 in 10.0 mi Calm Calm - N/A   Mostly Cloudy
11:53 PM 68.0 °F - 62.1 °F 81% 29.89 in 10.0 mi Calm Calm - N/A   Mostly Cloudy